• En España
  • Lista de países
  • Para 7 días
  • Temperatura del agua
  • Mapa Satelital
  • El tiempo en el mapa
  • Informadores
  • user-avatar
    Iniciar sesión

    Tiempo cada hora Varna

    Hoy, 25 Septiembre, Martes

    Tiempo Temperatura Precipitaciones Viento Presión Humedad
    00:00 +13°C° 0.3 mm 9 mps 749 mmHg 67%
    01:00 +12°C° 0.3 mm 8 mps 749 mmHg 70%
    02:00 +11°C° 0.3 mm 7 mps 750 mmHg 73%
    03:00 +11°C° 0.2 mm 7 mps 750 mmHg 72%
    04:00 +11°C° 0.2 mm 6 mps 751 mmHg 71%
    05:00 +12°C° 0.2 mm 5 mps 751 mmHg 70%
    06:00 +12°C° 0.1 mm 5 mps 752 mmHg 68%
    07:00 +12°C° 0.1 mm 5 mps 752 mmHg 67%
    08:00 +12°C° 0.1 mm 5 mps 753 mmHg 65%
    09:00 +13°C° 0 mm 5 mps 753 mmHg 59%
    10:00 +14°C° 0 mm 5 mps 753 mmHg 52%
    11:00 +15°C° 0 mm 5 mps 753 mmHg 46%
    12:00 +15°C° 0 mm 5 mps 754 mmHg 44%
    13:00 +15°C° 0 mm 6 mps 754 mmHg 42%
    14:00 +15°C° 0 mm 6 mps 754 mmHg 40%
    15:00 +15°C° 0 mm 6 mps 754 mmHg 39%
    16:00 +15°C° 0 mm 6 mps 754 mmHg 39%
    17:00 +15°C° 0 mm 5 mps 754 mmHg 38%
    18:00 +14°C° 0 mm 5 mps 755 mmHg 40%
    19:00 +13°C° 0 mm 5 mps 755 mmHg 41%
    20:00 +12°C° 0 mm 5 mps 756 mmHg 43%
    21:00 +10°C° 0 mm 5 mps 756 mmHg 44%
    22:00 +10°C° 0 mm 5 mps 756 mmHg 45%
    23:00 +9°C° 0 mm 6 mps 757 mmHg 46%

    Mañana, 26 Septiembre, Miércoles

    Tiempo Temperatura Precipitaciones Viento Presión Humedad
    00:00 +9°C° 0 mm 6 mps 757 mmHg 48%
    01:00 +8°C° 0 mm 6 mps 757 mmHg 49%
    02:00 +8°C° 0 mm 7 mps 757 mmHg 51%
    03:00 +8°C° 0 mm 7 mps 757 mmHg 53%
    04:00 +6°C° 0 mm 7 mps 757 mmHg 56%
    05:00 +6°C° 0 mm 7 mps 758 mmHg 58%
    06:00 +7°C° 0 mm 8 mps 758 mmHg 56%
    07:00 +7°C° 0 mm 9 mps 758 mmHg 55%
    08:00 +8°C° 0 mm 9 mps 759 mmHg 53%
    09:00 +10°C° 0 mm 9 mps 759 mmHg 48%
    10:00 +12°C° 0 mm 9 mps 759 mmHg 43%
    11:00 +13°C° 0 mm 9 mps 759 mmHg 39%
    12:00 +15°C° 0 mm 9 mps 759 mmHg 37%
    13:00 +15°C° 0 mm 9 mps 758 mmHg 35%
    14:00 +16°C° 0 mm 9 mps 758 mmHg 33%
    15:00 +15°C° 0 mm 9 mps 758 mmHg 33%
    16:00 +15°C° 0 mm 9 mps 758 mmHg 34%
    17:00 +13°C° 0 mm 8 mps 758 mmHg 34%
    18:00 +12°C° 0 mm 8 mps 758 mmHg 36%
    19:00 +11°C° 0 mm 8 mps 758 mmHg 39%
    20:00 +10°C° 0 mm 8 mps 758 mmHg 41%
    21:00 +9°C° 0 mm 8 mps 758 mmHg 43%
    22:00 +9°C° 0 mm 8 mps 759 mmHg 44%
    23:00 +7°C° 0 mm 8 mps 759 mmHg 45%

    Pasado mañana, 27 Septiembre, Jueves

    Tiempo Temperatura Precipitaciones Viento Presión Humedad
    00:00 +8°C° 0 mm 7 mps 758 mmHg 46%
    01:00 +6°C° 0 mm 7 mps 758 mmHg 47%
    02:00 +6°C° 0 mm 7 mps 758 mmHg 48%
    03:00 +5°C° 0 mm 7 mps 758 mmHg 49%
    04:00 +5°C° 0 mm 7 mps 757 mmHg 50%
    05:00 +4°C° 0 mm 7 mps 757 mmHg 50%
    06:00 +5°C° 0 mm 8 mps 757 mmHg 48%
    07:00 +6°C° 0 mm 8 mps 757 mmHg 45%
    08:00 +7°C° 0 mm 8 mps 757 mmHg 42%
    09:00 +10°C° 0 mm 8 mps 757 mmHg 40%
    10:00 +12°C° 0 mm 8 mps 757 mmHg 37%
    11:00 +13°C° 0 mm 8 mps 756 mmHg 35%
    12:00 +15°C° 0 mm 8 mps 756 mmHg 34%
    13:00 +16°C° 0 mm 8 mps 756 mmHg 34%
    14:00 +17°C° 0 mm 8 mps 755 mmHg 33%
    15:00 +16°C° 0 mm 7 mps 755 mmHg 34%
    16:00 +16°C° 0 mm 7 mps 754 mmHg 35%
    17:00 +16°C° 0 mm 7 mps 754 mmHg 36%
    18:00 +14°C° 0 mm 6 mps 754 mmHg 41%
    19:00 +13°C° 0 mm 6 mps 754 mmHg 45%
    20:00 +10°C° 0 mm 5 mps 754 mmHg 50%
    21:00 +10°C° 0 mm 5 mps 753 mmHg 52%
    22:00 +9°C° 0 mm 5 mps 753 mmHg 54%
    23:00 +9°C° 0 mm 5 mps 753 mmHg 56%

    28 Septiembre, Viernes

    Tiempo Temperatura Precipitaciones Viento Presión Humedad
    00:00 +9°C° 0 mm 5 mps 753 mmHg 56%
    01:00 +9°C° 0 mm 5 mps 753 mmHg 56%
    02:00 +8°C° 0 mm 5 mps 752 mmHg 55%
    03:00 +8°C° 0 mm 5 mps 752 mmHg 53%
    04:00 +8°C° 0 mm 5 mps 752 mmHg 51%
    05:00 +8°C° 0 mm 5 mps 751 mmHg 49%
    06:00 +9°C° 0 mm 6 mps 751 mmHg 45%
    07:00 +10°C° 0 mm 6 mps 751 mmHg 41%
    08:00 +13°C° 0 mm 6 mps 751 mmHg 37%
    09:00 +15°C° 0 mm 6 mps 751 mmHg 37%
    10:00 +17°C° 0 mm 6 mps 751 mmHg 38%
    11:00 +20°C° 0 mm 6 mps 751 mmHg 38%
    12:00 +20°C° 0 mm 6 mps 750 mmHg 38%
    13:00 +21°C° 0 mm 6 mps 750 mmHg 38%
    14:00 +22°C° 0 mm 6 mps 749 mmHg 38%
    15:00 +21°C° 0 mm 5 mps 749 mmHg 42%
    16:00 +20°C° 0 mm 5 mps 749 mmHg 46%
    17:00 +20°C° 0 mm 5 mps 748 mmHg 49%
    18:00 +18°C° 0 mm 4 mps 748 mmHg 57%
    19:00 +17°C° 0 mm 4 mps 748 mmHg 64%
    20:00 +14°C° 0 mm 3 mps 748 mmHg 71%
    21:00 +14°C° 0 mm 3 mps 748 mmHg 73%
    22:00 +14°C° 0 mm 3 mps 748 mmHg 76%
    23:00 +14°C° 0 mm 2 mps 748 mmHg 78%

    29 Septiembre, Sábado

    Tiempo Temperatura Precipitaciones Viento Presión Humedad
    00:00 +14°C° 0 mm 2 mps 748 mmHg 79%
    01:00 +13°C° 0 mm 3 mps 747 mmHg 79%
    02:00 +13°C° 0 mm 3 mps 747 mmHg 80%
    03:00 +12°C° 0 mm 3 mps 747 mmHg 80%
    04:00 +12°C° 0 mm 3 mps 747 mmHg 80%
    05:00 +12°C° 0 mm 3 mps 747 mmHg 80%
    06:00 +13°C° 0 mm 3 mps 747 mmHg 74%
    07:00 +14°C° 0 mm 3 mps 747 mmHg 68%
    08:00 +16°C° 0 mm 3 mps 747 mmHg 62%
    09:00 +18°C° 0 mm 3 mps 747 mmHg 57%
    10:00 +19°C° 0 mm 3 mps 747 mmHg 52%
    11:00 +21°C° 0 mm 3 mps 747 mmHg 47%
    12:00 +21°C° 0 mm 3 mps 746 mmHg 46%
    13:00 +22°C° 0 mm 3 mps 746 mmHg 45%
    14:00 +22°C° 0 mm 3 mps 746 mmHg 44%
    15:00 +22°C° 0 mm 3 mps 746 mmHg 47%
    16:00 +21°C° 0 mm 3 mps 746 mmHg 50%
    17:00 +20°C° 0 mm 3 mps 746 mmHg 53%
    18:00 +20°C° 0 mm 2 mps 746 mmHg 58%
    19:00 +19°C° 0 mm 2 mps 746 mmHg 62%
    20:00 +19°C° 0 mm 1 mps 746 mmHg 67%
    21:00 +18°C° 0.1 mm 1 mps 747 mmHg 69%
    22:00 +18°C° 0.1 mm 1 mps 747 mmHg 71%
    23:00 +16°C° 0.1 mm 1 mps 747 mmHg 73%

    30 Septiembre, Domingo

    Tiempo Temperatura Precipitaciones Viento Presión Humedad
    00:00 +16°C° 0 mm 2 mps 747 mmHg 71%
    01:00 +16°C° 0 mm 2 mps 747 mmHg 69%
    02:00 +16°C° 0 mm 3 mps 747 mmHg 67%
    03:00 +14°C° 0 mm 4 mps 748 mmHg 74%
    04:00 +13°C° 0 mm 4 mps 748 mmHg 80%
    05:00 +12°C° 0 mm 5 mps 748 mmHg 87%
    06:00 +13°C° 0 mm 5 mps 748 mmHg 85%
    07:00 +14°C° 0 mm 5 mps 748 mmHg 83%
    08:00 +14°C° 0 mm 5 mps 749 mmHg 81%
    09:00 +16°C° 0 mm 5 mps 749 mmHg 73%
    10:00 +19°C° 0 mm 5 mps 749 mmHg 64%
    11:00 +21°C° 0 mm 5 mps 749 mmHg 55%
    12:00 +22°C° 0 mm 4 mps 749 mmHg 51%
    13:00 +23°C° 0 mm 4 mps 749 mmHg 47%
    14:00 +23°C° 0 mm 4 mps 748 mmHg 44%
    15:00 +24°C° 0 mm 3 mps 748 mmHg 45%
    16:00 +24°C° 0 mm 3 mps 748 mmHg 47%
    17:00 +22°C° 0 mm 3 mps 748 mmHg 49%
    18:00 +20°C° 0 mm 2 mps 748 mmHg 56%
    19:00 +19°C° 0 mm 2 mps 748 mmHg 64%
    20:00 +17°C° 0 mm 2 mps 748 mmHg 71%
    21:00 +18°C° 0 mm 1 mps 748 mmHg 74%
    22:00 +16°C° 0 mm 1 mps 748 mmHg 78%
    23:00 +16°C° 0 mm 1 mps 748 mmHg 81%
    Mostrar más